Tracking 23757 objects as of 25-Oct-2021
HD Live streaming from Space Station
objects crossing your sky now

SL-8 R/B

Track SL-8 R/B now!
10-day predictions


NORAD ID: 24773
Int'l Code: 1997-017B
Perigee: 975.9 km
Apogee: 1,011.2 km
Inclination: 82.9 °
Period: 104.8 minutes
Semi major axis: 7364 km
RCS: 5.5844 m2 (large)
Launch date: April 17, 1997
Source: Commonwealth of Independent States (former USSR) (CIS)
Launch site: PLESETSK MISSILE AND SPACE COMPLEX (PKMTR)

Note: This is a ROCKET BODY
aabbcc
Your satellite tracking list
Your tracking list is empty




NASA's NSSDC Master Catalog

Two Line Element Set (TLE):
1 24773U 97017B   21297.47781566 -.00000046  00000-0 -65158-4 0  9993
2 24773  82.9175 274.7739 0023934 196.0501 282.3889 13.73669952228945
Source of the keplerian elements: AFSPC